Regional Weather Roundup
Issued by NWS Sterling, VA

Home | Current Version | Previous Version | Text Only | Print | Product List | Glossary Off
Versions: 1 2 3 4 5 6 7 8 9 10 11 12 13 14 15 16 17 18 19 20 21 22 23 24 25 26 27 28 29 30 31 32 33 34 35 36 37 38 39 40 41 42 43 44 45 46 47 48 49 50

000
ASUS41 KLWX 030710
RWRLWX

REGIONAL WEATHER ROUNDUP
NATIONAL WEATHER SERVICE BALTIMORE MD/WASHINGTON DC
300 AM EDT WED JUN 03 2015

Note: "FAIR" indicates few or no clouds below 12,000 feet
with no significant weather and/or obstructions to visibility.
 TC=TEMPERATURE CELSIUS

 * =Non NWS site. Station does not report precipitation (e.g. rain,
    snow, etc.), thunder, or fog.

DCZ001-MDZ009-015-VAZ040>042-051-053>054-030800-
WASHINGTON METRO

CITY           SKY/WX    TMP DP  RH WIND       PRES   REMARKS
WASHINGTON NAT DRIZZLE   60  56  86 NE9       30.14S
DULLES         DRIZZLE   56  54  93 NE7       30.14S
ANDREWS AFB    CLOUDY    56  56  99 NE9       30.12S
FT BELVOIR     CLOUDY    57  55  94 VRB1      30.13S
QUANTICO       LGT RAIN  59  56  89 NE13      30.13S
COLLEGE PARK*  CLOUDY    55  55 100 CALM      30.14S
LEESBURG*      CLOUDY    55  55 100 NE3       30.15S
MANASSAS*        N/A     57  57 100 NE7       30.14R
GAITHERSBURG*  CLOUDY    55  52  88 CALM      30.18S

$$

MDZ006>007-011-014-030800-
BALTIMORE METRO

CITY           SKY/WX    TMP DP  RH WIND       PRES   REMARKS
BWI AIRPORT    DRIZZLE   56  55  97 NE6       30.13F FOG
MD SCIENCE CTR   N/A     57  55  93 MISG      30.14F
MARTIN STATE   DRIZZLE   57  55  94 NE3       30.16S
ANNAPOLIS      CLOUDY    58  58 100 NE8       30.13S
FORT MEADE*    CLOUDY    55  54  94 E5        30.16S

$$

MDZ012-015-019>023-030800-
MARYLAND EASTERN SHORE

CITY           SKY/WX    TMP DP  RH WIND       PRES   REMARKS
OCEAN CITY     LGT RAIN  59  57  93 NE13      30.07F
SALISBURY      CLOUDY    57  56  96 NE7       30.09F
BAY BRIDGE AP*   N/A    N/A N/A N/A NE7       30.14S
CAMBRIDGE*     CLOUDY    59  55  88 NE7       30.11S
EASTON*        CLOUDY    57  57 100 NE10      30.16F FOG

$$

MDZ017>025-030800-
SOUTHERN MARYLAND

CITY           SKY/WX    TMP DP  RH WIND       PRES   REMARKS
PATUXENT RIVER LGT RAIN  58  55  90 NE16      30.10F
ST INIGOES     CLOUDY    59  56  89 NE8       30.09F
LEONARDTOWN*   CLOUDY    57  55  94 NE6       30.12S

$$

MDZ003>005-030800-
NORTH CENTRAL MARYLAND

CITY           SKY/WX    TMP DP  RH WIND       PRES   REMARKS
FREDERICK*     CLOUDY    55  55 100 N3        30.17F
HAGERSTOWN APT CLOUDY    58  54  86 E6        30.15S
WESTMINSTER*   CLOUDY    55  54  94 E5        30.15F

$$

MDZ501>502-030800-
WESTERN MARYLAND

CITY           SKY/WX    TMP DP  RH WIND       PRES   REMARKS
OAKLAND*       FOG       50 N/A N/A SE14      30.14F VSB 1/4
CUMBERLAND*    CLOUDY    59  54  82 E3        30.18F

$$

VAZ025>031-030800-
SHENANDOAH VALLEY

CITY           SKY/WX    TMP DP  RH WIND       PRES   REMARKS
WINCHESTER*    CLOUDY    57  55  94 E3        30.15S
FRONT ROYAL*   CLOUDY    55  54  94 N3        30.13S
LURAY*         CLOUDY    59  59 100 N8        30.13S
NEW MARKET*    CLOUDY    57  55  94 N7        30.11F
STAUNTON*      CLOUDY    60  56  88 E3        30.13F
WAYNESBORO*    CLOUDY    55  55  99 NE7       30.12S

$$

WVZ021-048>050-054>055-030800-
EASTERN WEST VIRGINIA PANHANDLE

CITY           SKY/WX    TMP DP  RH WIND       PRES   REMARKS
MARTINSBURG    CLOUDY    59  55  87 E5        30.15S
PETERSBURG*    CLOUDY    58  57  95 N5        30.14F

$$

VAZ036>039-050-030800-
CENTRAL FOOTHILLS

CITY           SKY/WX    TMP DP  RH WIND       PRES   REMARKS
CHARLOTTESVILL CLOUDY    58  55  90 NE8       30.11F
CULPEPER*      CLOUDY    56  55  97 N7        30.14S
ORANGE*        CLOUDY    59  55  88 N5        30.13S
GORDONSVILLE*  CLOUDY    57  55  94 N5        30.11S
WARRENTON*     DRIZZLE   58  58 100 N7        30.13S

$$

VAZ055>057-030800-
NORTH AND CENTRAL PIEDMONT

CITY           SKY/WX    TMP DP  RH WIND       PRES   REMARKS
FREDERICKSBRG* CLOUDY    60  60 100 NE5       30.11S
STAFFORD*      CLOUDY    57  55  94 NE5       30.16S

$$

NCZ024-NYZ072-PAZ021-071-VAZ022-071-030800-
OTHER REGIONAL OBSERVATIONS

CITY           SKY/WX    TMP DP  RH WIND       PRES   REMARKS
NEW YORK CITY  CLOUDY    54  50  86 VRB5      30.20R
PHILADELPHIA   LGT RAIN  55  50  83 NE10      30.17F
PITTSBURGH     PTCLDY    54  52  93 E6        30.12F
ROANOKE        LGT RAIN  60  59  96 NE7       30.09S
RICHMOND       LGT RAIN  61  59  93 NE8       30.07F
RALEIGH        CLOUDY    67  65  93 CALM      30.00F

$$

ANZ530>537-030800-
MARINE OBSERVATIONS

STATION/POSITION TIME  TEMP    WIND        PRES
                       AIR SEA DIR/SP/G
                 (UTC) (F)     (DEG/KT/KT) (MB)
THOMAS PT LIGHT  0700   58 71   50/ 16/ 18 1020.6F
BALT KEY BRIDGE  0600   58                 1020.7S
COVE POINT       0600   58                 1020.4S
LEWISETTA        0600   60 72              1018.8F
SOLOMONS ISLAND  0600      72                N/A
PINEY POINT      0618           60/  7/  9   N/A

$$



USA.gov is the U.S. government's official web portal to all federal, state and local government web resources and services.